Dewpoint
-15 -17 -19 -19 -20 -22 -27 -33 -36 -36 -35 -35 -34 -35 -36 -36 -35 -34 -36 -37 -37 -36 -34 -31 -29 -25 -17 -9 -6 -6 -7 -8 -9 -7 -6 -4 -2 -0 1 2 2 4 5
-16 -16 -17 -18 -18 -21 -24 -26 -30 -33 -33 -34 -33 -33 -34 -34 -33 -32 -33 -34 -37 -37 -36 -35 -33 -31 -26 -21 -14 -7 -6 -7 -7 -8 -7 -5 -3 -2 -1 -0 1 1 2
-14 -15 -16 -17 -17 -20 -21 -22 -23 -26 -30 -31 -31 -31 -31 -31 -29 -29 -29 -30 -34 -35 -35 -35 -33 -32 -30 -25 -21 -16 -9 -7 -7 -9 -9 -7 -4 -4 -2 -2 -2 -1 -1
-13 -13 -15 -15 -16 -18 -19 -20 -20 -23 -27 -29 -28 -27 -28 -27 -27 -27 -27 -27 -30 -32 -33 -34 -31 -32 -30 -26 -21 -20 -18 -15 -10 -8 -9 -9 -6 -5 -4 -4 -4 -3 -2
-12 -12 -14 -14 -15 -16 -17 -18 -19 -20 -27 -28 -25 -24 -25 -23 -25 -26 -27 -28 -28 -31 -31 -34 -33 -32 -29 -27 -20 -18 -19 -18 -17 -13 -10 -10 -8 -7 -6 -5 -5 -5 -5
-11 -12 -13 -14 -14 -15 -16 -17 -17 -19 -24 -28 -26 -23 -22 -22 -24 -25 -25 -27 -28 -29 -32 -32 -33 -33 -32 -30 -27 -21 -18 -19 -17 -15 -14 -10 -9 -7 -7 -7 -6 -4 -6
-10 -12 -12 -14 -14 -15 -15 -16 -16 -17 -22 -28 -26 -23 -21 -16 -22 -24 -24 -26 -28 -28 -28 -30 -32 -33 -33 -32 -31 -30 -29 -25 -19 -15 -15 -13 -10 -8 -7 -7 -7 -7 -7
-10 -11 -12 -13 -14 -14 -14 -15 -15 -17 -21 -28 -29 -26 -22 -16 -15 -20 -23 -23 -24 -26 -25 -20 -25 -28 -33 -34 -34 -34 -33 -32 -28 -20 -15 -14 -12 -9 -8 -8 -7 -8 -7
-10 -12 -12 -13 -15 -15 -15 -16 -15 -17 -21 -28 -31 -29 -24 -19 -14 -21 -22 -23 -24 -25 -25 -17 -15 -21 -29 -32 -34 -34 -34 -33 -30 -25 -21 -19 -18 -18 -12 -7 -6 -7 -8
-11 -12 -12 -13 -16 -16 -16 -16 -15 -17 -20 -29 -32 -30 -28 -23 -15 -20 -26 -23 -25 -23 -24 -20 -20 -16 -27 -29 -31 -32 -33 -34 -35 -35 -33 -29 -27 -25 -25 -22 -15 -12 -10
-11 -11 -11 -14 -17 -16 -15 -15 -15 -17 -21 -27 -29 -29 -27 -25 -20 -19 -32 -27 -25 -21 -23 -23 -20 -27 -23 -28 -28 -29 -30 -32 -34 -35 -36 -36 -34 -32 -29 -28 -26 -25 -20
-10 -11 -14 -18 -16 -15 -15 -16 -17 -20 -24 -24 -27 -28 -27 -25 -25 -31 -32 -33 -28 -24 -26 -26 -26 -28 -28 -28 -29 -27 -29 -31 -32 -34 -35 -35 -35 -35 -33 -31 -31 -31 -30
-10 -14 -19 -17 -16 -16 -17 -19 -20 -22 -22 -22 -25 -27 -26 -24 -24 -30 -31 -33 -31 -27 -29 -28 -28 -29 -29 -29 -29 -29 -30 -29 -30 -31 -32 -33 -33 -34 -35 -35 -34 -34 -34
-12 -18 -18 -17 -17 -19 -22 -21 -20 -20 -20 -20 -22 -25 -25 -22 -24 -29 -30 -30 -32 -30 -30 -30 -31 -30 -30 -29 -30 -29 -28 -27 -28 -28 -29 -31 -32 -34 -35 -35 -36 -36 -36
-15 -18 -17 -16 -18 -20 -20 -19 -18 -18 -18 -18 -20 -22 -22 -19 -20 -25 -26 -29 -32 -32 -31 -31 -31 -32 -31 -31 -30 -29 -28 -26 -26 -26 -28 -29 -30 -32 -33 -34 -35 -32 -27
-18 -18 -18 -17 -18 -19 -19 -18 -16 -14 -15 -17 -17 -19 -20 -20 -21 -23 -30 -33 -32 -32 -31 -32 -32 -32 -31 -31 -31 -28 -25 -23 -22 -24 -26 -27 -25 -28 -31 -33 -34 -30 -24
-18 -19 -20 -19 -19 -20 -19 -18 -18 -15 -14 -15 -16 -16 -16 -19 -21 -23 -29 -31 -32 -32 -32 -32 -31 -31 -31 -31 -30 -29 -25 -24 -23 -23 -24 -26 -27 -29 -28 -30 -32 -28 -22
-16 -17 -19 -20 -20 -19 -19 -18 -17 -15 -16 -17 -15 -14 -15 -17 -20 -23 -27 -30 -31 -32 -32 -31 -31 -30 -30 -30 -30 -30 -28 -25 -23 -23 -24 -25 -28 -29 -31 -30 -29 -28 -22
-14 -15 -17 -18 -19 -18 -17 -17 -16 -14 -14 -14 -14 -15 -15 -17 -19 -23 -27 -30 -31 -31 -31 -31 -31 -30 -30 -30 -29 -29 -28 -27 -25 -24 -24 -25 -30 -27 -30 -27 -24 -26 -23
-13 -15 -16 -17 -17 -17 -16 -16 -15 -14 -14 -14 -14 -15 -15 -17 -19 -23 -27 -30 -30 -31 -31 -30 -30 -30 -30 -29 -29 -29 -27 -25 -24 -24 -24 -27 -32 -30 -26 -26 -25 -22 -22
-14 -15 -16 -17 -17 -17 -17 -17 -16 -15 -15 -15 -15 -15 -17 -18 -21 -25 -27 -29 -30 -30 -30 -30 -30 -30 -30 -29 -29 -29 -28 -26 -26 -24 -24 -29 -32 -32 -29 -28 -24 -23 -24
-15 -15 -16 -17 -16 -16 -17 -18 -18 -17 -16 -16 -17 -18 -19 -20 -23 -25 -27 -29 -29 -30 -30 -29 -29 -29 -29 -29 -28 -28 -27 -26 -25 -24 -26 -30 -31 -32 -31 -30 -30 -24 -23
-15 -16 -16 -16 -16 -18 -20 -20 -19 -19 -19 -19 -21 -20 -21 -22 -24 -26 -28 -29 -29 -30 -29 -29 -29 -29 -28 -28 -28 -27 -26 -25 -24 -23 -27 -30 -31 -30 -30 -28 -29 -29 -29
-15 -16 -16 -16 -18 -20 -20 -20 -21 -22 -23 -23 -21 -21 -22 -23 -25 -26 -28 -29 -29 -29 -29 -29 -29 -28 -27 -27 -26 -26 -26 -24 -23 -24 -27 -28 -30 -30 -29 -28 -28 -29 -28
-15 -15 -17 -21 -20 -19 -20 -21 -23 -24 -23 -22 -21 -23 -23 -24 -26 -27 -29 -29 -29 -29 -29 -29 -29 -28 -27 -26 -26 -25 -24 -23 -23 -24 -26 -27 -28 -29 -28 -27 -27 -27 -28
-15 -18 -22 -19 -18 -19 -20 -22 -23 -24 -23 -22 -23 -24 -24 -26 -27 -29 -29 -29 -29 -29 -29 -29 -29 -28 -27 -26 -25 -25 -24 -23 -23 -24 -25 -26 -26 -26 -26 -26 -26 -27 -27
Wind_Speed
6 5 3 0 2 4 5 6 7 9 10 11 12 12 13 14 15 16 18 19 19 18 18 19 21 20 20 22 22 22 19 18 18 22 22 24 15 14 11 10 12 11 12
8 6 3 1 2 3 4 6 7 8 10 11 11 12 12 14 15 17 19 20 20 20 20 20 22 22 21 22 23 23 23 21 21 21 21 26 19 15 9 9 8 7 3
9 7 4 3 2 3 5 6 7 8 10 11 11 11 13 15 16 18 20 20 20 20 20 21 22 23 24 24 24 24 23 23 23 19 20 23 22 17 8 6 6 5 3
12 8 5 3 2 3 5 7 7 8 9 10 11 12 13 15 17 19 21 21 21 21 21 21 22 24 25 24 24 26 25 23 23 24 23 23 26 23 13 11 16 12 7
14 10 7 4 1 2 4 6 7 8 8 9 11 12 12 15 17 18 20 21 21 21 22 22 22 23 23 24 24 25 25 26 26 24 26 26 30 30 26 16 10 8 14
14 11 8 5 3 1 2 4 6 7 7 8 9 12 13 14 15 18 19 19 20 21 22 22 22 22 23 22 21 21 23 25 26 27 27 30 30 26 23 22 16 5 8
15 13 10 7 5 3 1 2 4 5 6 6 8 10 13 13 14 15 16 18 19 21 22 22 22 22 22 21 21 21 22 22 24 24 25 27 27 24 19 16 17 16 17
17 15 12 9 8 6 4 2 2 3 5 5 7 8 10 12 14 13 15 17 19 20 22 22 22 22 22 22 21 21 22 23 23 22 21 21 22 20 15 12 10 11 11
19 16 13 11 9 8 6 4 3 2 3 4 5 6 8 10 12 13 13 14 17 19 19 19 20 21 22 21 20 21 20 21 20 19 17 17 17 18 16 9 9 5 9
19 16 13 11 9 9 8 6 4 2 1 3 5 6 7 8 11 13 14 13 14 15 17 17 20 20 21 21 22 22 22 22 19 17 17 17 18 19 21 22 20 20 17
17 16 14 12 10 10 9 7 6 3 1 2 4 5 6 8 9 11 14 12 13 14 15 16 16 19 19 19 20 21 22 19 18 18 19 20 22 23 23 23 23 22 19
18 16 15 14 14 12 10 9 7 4 1 1 2 4 6 7 9 11 13 13 12 12 14 15 16 18 17 18 17 17 17 17 18 19 20 22 24 24 23 20 20 20 20
18 17 17 16 14 13 11 10 8 5 3 2 1 2 4 6 8 10 12 12 12 11 13 13 14 16 16 16 16 15 16 18 19 21 22 22 22 21 18 16 15 15 17
19 20 19 18 16 14 13 11 8 7 5 4 2 0 2 4 7 10 11 11 11 11 11 12 14 15 16 15 14 15 16 17 19 20 19 19 19 19 20 19 18 16 16
21 21 20 19 16 14 12 10 9 7 6 3 2 0 2 3 5 11 12 13 12 11 11 11 10 10 12 12 13 13 14 14 16 18 19 19 20 21 21 21 20 20 20
23 23 22 21 19 16 14 13 11 7 6 5 3 1 2 2 8 11 10 14 13 12 11 11 11 11 12 12 13 12 12 13 15 17 18 19 19 21 21 21 21 20 19
22 22 22 21 20 18 17 14 12 10 10 8 5 2 3 7 10 10 11 12 12 12 11 11 10 10 10 11 12 12 11 12 13 15 17 19 18 19 21 21 21 20 18
19 18 19 20 19 18 16 14 13 11 11 7 6 6 9 10 11 12 13 12 11 10 10 10 10 9 9 9 9 10 10 10 11 14 16 18 18 18 19 20 20 20 17
21 20 19 18 17 16 15 15 14 13 12 11 10 9 10 11 12 13 13 11 9 9 9 9 9 8 8 9 10 9 9 9 10 12 14 15 17 17 18 18 17 19 18
22 20 19 19 19 19 18 17 16 15 14 13 13 12 11 10 11 12 11 10 9 9 9 9 8 7 7 7 9 8 7 7 8 9 10 12 14 15 16 17 18 16 17
25 23 22 21 19 18 18 17 16 15 14 13 14 12 11 11 11 11 10 9 8 8 8 8 8 7 7 8 8 7 6 6 7 7 8 10 12 14 15 16 16 16 17
24 24 24 22 19 18 17 16 16 15 14 14 13 12 11 11 10 10 9 9 8 8 8 8 7 7 7 7 7 5 4 4 5 5 5 7 9 11 13 15 16 17 17
23 24 23 21 19 17 16 16 15 14 13 13 12 12 11 10 10 10 9 9 8 8 8 7 7 7 7 5 5 3 3 4 2 2 3 5 7 9 11 13 16 17 18
21 21 21 20 19 17 16 15 14 13 13 12 12 11 11 10 10 10 9 9 8 8 7 7 6 6 6 6 5 4 3 2 1 2 3 4 5 7 9 12 14 16 17
19 20 19 19 18 17 16 15 13 12 12 12 11 11 11 10 10 10 9 8 8 8 7 7 6 6 6 5 5 3 2 2 3 4 5 5 6 7 8 11 13 14 16
19 19 19 18 18 16 15 13 12 12 12 11 11 11 11 11 10 9 8 8 7 8 7 7 7 6 6 5 5 4 4 4 5 6 6 6 7 7 9 11 12 13 15
Wind_Direction
231 241 227 269 21 34 30 28 28 27 26 25 25 24 24 25 26 25 27 27 23 22 21 20 22 20 20 20 23 17 7 355 332 344 338 349 337 318 312 301 295 290 275
218 215 187 169 75 47 41 40 38 32 30 29 28 27 28 30 31 29 29 27 23 23 24 24 25 25 25 24 22 19 16 9 356 348 352 4 6 354 338 333 311 304 346
210 197 179 160 105 59 49 45 42 37 33 32 31 31 34 36 35 33 31 28 25 25 24 23 26 25 25 26 25 22 17 17 13 9 360 11 17 9 6 27 358 332 61
201 191 181 179 127 64 54 51 49 43 38 37 35 34 37 41 38 36 32 30 28 27 27 26 25 25 24 24 22 23 22 21 18 18 16 17 24 27 21 42 52 34 50
200 195 193 201 188 71 56 55 53 50 47 43 39 38 39 41 40 38 34 32 32 33 32 29 29 28 25 22 22 20 19 22 23 21 20 17 25 27 25 11 10 32 50
200 200 204 210 212 187 55 54 55 51 48 46 43 43 43 45 42 39 36 33 33 34 35 33 31 28 27 23 25 22 17 20 26 24 21 18 19 28 30 28 19 34 39
200 204 208 209 211 211 193 79 66 54 48 45 46 44 40 39 38 36 34 33 32 31 35 34 32 32 29 25 25 24 23 24 27 28 25 23 17 14 23 37 46 51 58
202 204 207 208 208 209 203 163 112 69 53 47 47 45 40 43 20 30 32 32 32 30 30 27 30 29 29 27 26 26 26 24 26 28 31 29 28 27 15 27 44 69 56
203 206 205 206 207 206 204 184 163 109 58 48 48 46 41 37 24 26 30 29 26 28 29 32 29 28 25 25 28 35 35 32 30 28 30 33 31 37 41 45 49 45 58
202 204 206 207 206 201 199 189 181 169 70 39 46 46 42 38 31 15 29 24 21 24 23 25 27 28 22 21 22 27 28 31 30 30 31 30 32 38 39 43 41 47 45
199 202 206 206 200 192 193 193 192 190 110 43 55 55 42 34 25 16 16 18 18 16 15 18 17 19 16 15 16 21 25 23 29 33 34 35 34 33 36 36 35 38 41
200 204 203 200 192 190 191 198 197 192 156 90 68 56 37 23 15 12 13 14 13 9 6 7 9 10 10 6 14 20 15 21 29 32 33 35 34 34 33 33 33 33 30
201 202 197 191 188 189 194 195 193 187 175 159 122 49 26 18 17 13 9 7 4 0 0 3 3 3 2 2 8 12 17 24 29 33 36 35 34 33 38 43 40 40 37
201 195 191 190 188 190 191 189 189 187 184 177 180 4 21 13 6 2 4 4 0 358 357 359 1 358 356 359 3 11 22 27 31 33 33 33 31 30 30 28 30 34 39
198 193 191 191 192 191 189 190 193 194 187 201 196 249 5 14 3 359 352 352 358 357 360 1 354 352 356 0 5 11 19 25 29 29 27 25 26 28 28 26 26 24 23
195 194 195 195 194 195 196 195 196 198 205 209 224 232 311 326 342 346 349 341 352 352 355 354 355 359 1 2 5 11 16 22 25 23 23 23 23 23 24 26 27 27 22
200 198 196 197 199 200 201 204 205 203 219 212 223 296 295 307 333 342 347 340 344 349 350 351 355 359 3 3 2 5 10 16 19 20 22 23 24 23 23 24 26 26 22
199 203 203 202 203 205 208 211 214 213 207 213 218 218 275 301 326 335 341 342 342 343 345 348 350 355 358 0 1 1 2 7 11 15 15 19 24 25 25 24 23 23 20
199 199 202 205 208 211 213 215 221 222 222 226 232 241 258 293 314 325 331 334 336 342 345 345 346 349 350 353 357 359 1 360 4 9 10 16 20 22 23 24 21 20 21
206 207 205 205 208 210 215 220 224 226 227 230 238 249 263 281 300 311 318 323 330 336 340 341 341 343 342 345 351 354 358 4 7 9 14 21 22 24 23 22 20 18 15
207 207 209 212 215 218 222 225 226 227 230 233 240 249 259 275 291 300 309 315 323 329 332 333 332 334 335 335 339 344 346 353 4 15 22 22 24 27 26 24 21 18 14
207 210 211 215 218 217 220 222 220 221 225 230 239 246 257 271 281 292 299 306 313 319 324 326 327 328 327 324 325 331 343 349 355 14 17 21 27 24 24 22 21 19 16
205 208 211 215 216 216 216 215 217 221 225 229 235 244 256 264 275 285 292 299 306 313 318 322 324 325 329 333 330 322 318 322 324 354 360 10 15 15 17 16 15 13 12
203 208 213 215 214 214 214 215 219 222 225 228 236 246 254 263 273 280 287 292 300 307 314 319 319 318 320 322 318 304 299 283 260 317 320 337 350 357 2 5 5 5 5
207 210 210 211 212 211 212 215 220 223 225 232 242 248 255 264 271 276 281 289 296 302 309 311 309 309 313 310 310 300 277 243 279 297 295 301 322 332 342 348 350 354 356
210 207 206 208 208 211 213 217 222 225 231 239 244 249 256 262 268 273 279 285 291 298 304 305 303 300 300 299 293 270 258 256 279 286 286 289 302 314 326 335 340 344 348
Height
1501 1502 1502 1503 1504 1502 1499 1497 1496 1495 1494 1492 1491 1489 1486 1483 1480 1477 1473 1469 1466 1463 1459 1455 1451 1446 1442 1438 1433 1429 1423 1419 1413 1404 1400 1393 1388 1385 1383 1380 1377 1375 1373
1498 1500 1500 1501 1502 1500 1498 1496 1495 1495 1493 1492 1491 1489 1486 1483 1480 1477 1473 1469 1466 1463 1460 1456 1452 1447 1443 1439 1434 1429 1424 1419 1412 1404 1400 1392 1388 1384 1381 1379 1376 1374 1370
1496 1497 1498 1499 1499 1498 1496 1495 1494 1494 1493 1491 1490 1489 1486 1483 1480 1476 1473 1470 1467 1464 1460 1456 1453 1449 1444 1440 1436 1432 1426 1420 1415 1408 1402 1395 1389 1385 1382 1378 1377 1376 1373
1493 1494 1495 1496 1497 1496 1495 1494 1494 1493 1493 1492 1490 1488 1486 1483 1480 1477 1474 1471 1468 1465 1461 1457 1453 1449 1445 1442 1438 1432 1428 1423 1417 1412 1405 1398 1392 1388 1385 1381 1378 1377 1374
1490 1491 1493 1494 1495 1495 1494 1494 1494 1494 1493 1492 1491 1489 1487 1484 1481 1479 1476 1473 1470 1467 1463 1459 1455 1452 1448 1444 1439 1435 1430 1425 1419 1414 1408 1402 1394 1389 1385 1385 1383 1381 1379
1486 1488 1490 1491 1492 1493 1493 1493 1493 1494 1494 1493 1492 1490 1487 1485 1482 1480 1478 1475 1472 1469 1465 1461 1458 1454 1450 1447 1443 1438 1433 1427 1421 1416 1411 1406 1400 1396 1393 1389 1386 1384 1383
1483 1485 1488 1489 1490 1491 1492 1493 1493 1493 1493 1493 1492 1491 1488 1486 1484 1481 1479 1476 1474 1470 1467 1464 1460 1456 1453 1449 1445 1441 1436 1431 1425 1421 1417 1411 1405 1400 1397 1396 1392 1389 1388
1479 1482 1485 1486 1488 1489 1490 1491 1492 1493 1493 1492 1492 1491 1489 1487 1484 1482 1479 1477 1474 1471 1468 1465 1462 1458 1454 1451 1447 1443 1438 1433 1429 1424 1421 1417 1412 1407 1402 1399 1397 1395 1393
1476 1479 1481 1484 1485 1487 1488 1489 1491 1492 1492 1492 1491 1490 1489 1487 1485 1482 1480 1478 1475 1472 1470 1467 1464 1460 1456 1453 1450 1445 1442 1437 1433 1429 1425 1421 1417 1411 1406 1403 1397 1396 1395
1473 1476 1479 1481 1483 1485 1487 1488 1489 1490 1490 1490 1490 1489 1488 1487 1485 1481 1479 1478 1476 1474 1471 1468 1465 1462 1458 1454 1450 1447 1443 1439 1436 1432 1428 1423 1419 1414 1409 1405 1403 1398 1395
1471 1474 1476 1478 1481 1483 1485 1486 1488 1489 1488 1488 1489 1488 1487 1486 1484 1481 1479 1477 1475 1473 1471 1469 1466 1463 1460 1456 1452 1448 1445 1442 1439 1434 1430 1425 1421 1416 1412 1409 1406 1403 1401
1468 1471 1473 1475 1478 1481 1483 1484 1485 1486 1487 1487 1487 1487 1486 1484 1483 1481 1479 1477 1475 1473 1471 1469 1466 1463 1461 1458 1454 1451 1448 1444 1440 1436 1432 1427 1423 1419 1416 1413 1410 1407 1405
1464 1467 1470 1473 1476 1478 1480 1482 1483 1484 1485 1485 1485 1485 1484 1483 1482 1481 1479 1477 1475 1473 1471 1468 1466 1463 1461 1459 1455 1452 1449 1445 1441 1437 1434 1431 1428 1425 1422 1419 1415 1412 1410
1461 1465 1468 1470 1473 1476 1478 1480 1481 1482 1483 1483 1483 1483 1482 1482 1481 1480 1479 1476 1474 1472 1470 1468 1465 1462 1460 1459 1456 1452 1449 1446 1443 1440 1437 1435 1432 1428 1424 1420 1417 1414 1412
1459 1462 1465 1468 1471 1474 1476 1478 1479 1480 1481 1481 1481 1481 1481 1480 1480 1478 1476 1474 1473 1471 1468 1467 1465 1463 1461 1458 1456 1453 1450 1448 1445 1443 1440 1436 1433 1430 1426 1423 1419 1416 1412
1455 1458 1462 1465 1468 1471 1473 1474 1476 1478 1479 1480 1480 1479 1479 1478 1478 1477 1475 1473 1472 1469 1468 1466 1464 1461 1459 1457 1455 1453 1451 1449 1447 1444 1442 1439 1435 1432 1429 1425 1422 1419 1416
1451 1455 1459 1462 1465 1467 1470 1472 1473 1475 1476 1478 1478 1477 1477 1477 1476 1475 1473 1471 1469 1468 1466 1464 1462 1461 1459 1457 1455 1453 1451 1449 1448 1446 1443 1441 1438 1435 1431 1428 1425 1423 1420
1449 1452 1456 1459 1462 1464 1467 1469 1471 1472 1474 1475 1476 1477 1475 1475 1474 1473 1471 1469 1468 1466 1465 1463 1462 1460 1458 1457 1455 1453 1451 1450 1448 1446 1444 1442 1439 1437 1434 1431 1428 1426 1424
1445 1449 1453 1456 1459 1462 1464 1466 1468 1470 1471 1472 1473 1474 1474 1472 1471 1470 1469 1468 1467 1465 1464 1462 1460 1459 1457 1456 1454 1453 1451 1450 1448 1446 1445 1443 1440 1438 1435 1433 1430 1427 1424
1442 1446 1450 1453 1455 1458 1460 1462 1464 1466 1467 1469 1470 1470 1470 1470 1469 1468 1467 1466 1464 1463 1462 1460 1459 1458 1456 1455 1453 1452 1451 1449 1448 1447 1445 1444 1442 1439 1437 1434 1431 1429 1427
1438 1442 1446 1449 1452 1454 1457 1459 1461 1462 1464 1465 1466 1467 1467 1467 1466 1465 1464 1463 1462 1461 1460 1459 1457 1456 1455 1453 1452 1451 1450 1449 1448 1447 1446 1445 1443 1441 1439 1436 1434 1431 1428
1435 1439 1442 1445 1448 1451 1453 1455 1457 1459 1460 1461 1462 1463 1463 1463 1463 1462 1461 1460 1459 1458 1457 1456 1455 1454 1452 1451 1450 1449 1449 1448 1448 1447 1446 1445 1444 1442 1440 1438 1436 1433 1431
1431 1434 1438 1441 1444 1447 1449 1451 1453 1455 1456 1457 1458 1459 1460 1459 1459 1459 1458 1457 1456 1455 1454 1453 1452 1451 1450 1449 1448 1448 1447 1447 1447 1446 1446 1445 1444 1442 1441 1439 1437 1434 1431
1427 1431 1434 1437 1440 1442 1445 1447 1449 1451 1452 1454 1455 1455 1455 1456 1455 1455 1455 1454 1453 1452 1451 1450 1449 1448 1447 1447 1446 1446 1446 1445 1445 1445 1445 1444 1443 1442 1441 1439 1437 1435 1432
1423 1426 1430 1433 1436 1439 1441 1443 1445 1447 1448 1450 1450 1451 1451 1451 1452 1451 1451 1450 1450 1449 1448 1447 1446 1446 1445 1444 1444 1444 1444 1444 1444 1444 1443 1443 1442 1441 1440 1438 1437 1434 1432
1420 1423 1426 1429 1432 1435 1438 1440 1441 1443 1444 1445 1446 1447 1447 1447 1447 1447 1447 1447 1446 1446 1445 1444 1444 1443 1442 1442 1442 1442 1442 1442 1442 1442 1441 1441 1440 1439 1438 1437 1435 1433 1431